loading
|

THOR AGENA B R/B, 1807

Orbit data source: Space-Track

THOR AGENA B R/B, 1807 is space debris in LEO originally from a launch on Mon, 29 Nov 1965 UTC launched from the Air Force Western Test Range (AFWTR). Debris objects in space refer to the collection of defunct objects orbiting the Earth. Examples of debris include non-operational satellites, rocket bodies, and fragments generated from explosions, collisions, or faulty payload assembly.

Loading next visibility...
Loading greatness...
THOR AGENA B R/B details
Identifier
1807, 1965-098C
Orbit
LEO
Last TLE update13 hours ago
Origin
Flag of USUSAF SSD (US)
ManufacturerLMSC
MissionSpacecraft
Bus & MotorAGENA B, Unknown motor
Mass600 kg wet, 600 kg dry
Launch date (UTC)
1965-11-29 (59 years ago)
Launch vehicleUnknown
Launch site
Air Force Western Test Range (AFWTR)
Object type
Payload
Rocket body
Debris
Shape & HBRCyl + 1 Nozzle, 6.3 m
Radar Cross Section8.306 m², Large (>1 m²)

Expand to show TLE details & history

TLE from 13 hours ago
0 THOR AGENA B R/B
1 01807U 65098C   24278.50626803  .00002823  00000-0  93924-3 0  9992
2 01807  79.8388 206.9878 1336067 209.1054 142.8736 12.26777986597140
Epoch: 2024-10-04T12:09Z
Definitive object data (Epoch: 2024-10-04T12:09:01.557Z)
Latitude-0.00005°
Longitude11.05535°
Altitude2,456.118 km
Speed6.331 km/s
True Right ascension13h 47m 57s
True Declination0° 00' 00"
Sunlit
Object was in daylight at TLE epoch
Predictive object data (real-time)
Latitude-29.06751°
Longitude-163.71456°
Altitude512.876 km
Speed8.099 km/s
Apparent Right ascension04h 17m 20s
Apparent Declination-40° 01' 50"
Sunlit
Object is in full shadow
Predictive observer data (real-time)
Local Sidereal Time19:00:46
Azimuth103.658° ESE
Elevation-58.97°
Doppler factor1
Orbital elements
Apogee2,621.244 km
Perigee499.913 km
Semi-major axis7,938.715 km
Eccentricity0.1336067
Inclination79.8388°
RAAN206.9878°
Arg. of periapsis209.1054°
True anomaly150.99767°
Mean anomaly142.8736°
Eccentric anomaly147.03855°
Mean motion3.06844 °/min
BSTAR0.00093924
Period117.32 mins
No data available

THOR AGENA B R/B Visibility forecast

Observer location: 39.9160978°, -105.1181434

THOR AGENA B R/B is not visible in the next 10 days
Span
Click to sort rows by Start time (UTC) header in descending order
Start Az.
Max El. time (UTC)
Max El. Az.
Max El.
End time (UTC)
End Az.